This demonstration page uses our WeatherBlox Daily Observations layout. Learn more.

Left ArrowRight Arrow

39.12711, -84.51439

Hourly Observations for January 20, 2022

Temp ( °F °C ) Dew Point ( °F °C ) Humidity (%) Winds ( mph kmh ) Pressure ( in mb ) Visibility ( mi km ) Precip ( " mm )
12:53 am 00:53 Cloudy 26 -3.3 15 -9.4 63 63 N 16 26 30.27 1025 10 16 0.00 0.00
1:22 am 01:22 Partly Cloudy 25 -3.9 14 -10 63 63 NNW 15 24 30.31 1026 10 16 0.00 0.00
1:39 am 01:39 Mostly Cloudy 25 -3.9 14 -10 63 63 N 15 24 30.31 1026 10 16 0.00 0.00
1:53 am 01:53 Cloudy 25 -3.9 14 -10 63 63 NNW 14 22 30.29 1026 10 16 0.00 0.00
2:34 am 02:34 Cloudy 25 -3.9 14 -10 63 63 N 15 24 30.34 1027 10 16 0.00 0.00
2:53 am 02:53 Cloudy 25 -3.9 14 -10 63 63 N 12 19 30.31 1027 10 16 0.00 0.00
3:53 am 03:53 Clear 23 -5 8 -13.3 53 53 N 12 19 30.33 1027 10 16 0.00 0.00
4:53 am 04:53 Clear 22 -5.6 8 -13.3 55 55 N 13 20 30.35 1028 10 16 0.00 0.00
5:53 am 05:53 Clear 22 -5.6 9 -12.8 57 57 N 12 19 30.38 1029 10 16 0.00 0.00
6:53 am 06:53 Clear 21 -6.1 10 -12.2 62 62 N 8 13 30.41 1030 10 16 0.00 0.00
7:53 am 07:53 Sunny 20 -6.7 10 -12.2 65 65 N 9 15 30.44 1031 10 16 0.00 0.00
8:53 am 08:53 Mostly Sunny 22 -5.6 11 -11.7 63 63 N 12 19 30.45 1031 10 16 0.00 0.00
9:53 am 09:53 Mostly Sunny 24 -4.4 7 -13.9 48 48 NNE 13 20 30.48 1032 10 16 0.00 0.00
10:53 am 10:53 Mostly Sunny 24 -4.4 6 -14.4 46 46 N 15 24 30.50 1033 10 16 0.00 0.00
11:53 am 11:53 Partly Cloudy 27 -2.8 7 -13.9 43 43 N 14 22 30.49 1033 10 16 0.00 0.00
12:53 pm 12:53 Partly Cloudy 28 -2.2 8 -13.3 43 43 N 10 17 30.48 1032 10 16 0.00 0.00
1:53 pm 13:53 Mostly Cloudy 29 -1.7 8 -13.3 41 41 NNE 15 24 30.46 1032 10 16 0.00 0.00
2:53 pm 14:53 Partly Cloudy 28 -2.2 6 -14.4 39 39 N 15 24 30.45 1031 10 16 0.00 0.00
3:53 pm 15:53 Partly Cloudy 29 -1.7 7 -13.9 39 39 NNW 12 19 30.46 1032 10 16 0.00 0.00
4:53 pm 16:53 Cloudy 26 -3.3 7 -13.9 44 44 N 14 22 30.48 1032 10 16 0.00 0.00
5:53 pm 17:53 Mostly Cloudy 24 -4.4 7 -13.9 48 48 N 9 15 30.49 1033 10 16 0.00 0.00
6:53 pm 18:53 Cloudy 24 -4.4 7 -13.9 48 48 N 10 17 30.51 1033 10 16 0.00 0.00
7:53 pm 19:53 Cloudy 23 -5 8 -13.3 53 53 N 12 19 30.53 1034 10 16 0.00 0.00
8:53 pm 20:53 Cloudy 23 -5 8 -13.3 53 53 N 10 17 30.54 1034 10 16 0.00 0.00
9:53 pm 21:53 Cloudy 23 -5 8 -13.3 53 53 NNE 12 19 30.53 1034 10 16 0.00 0.00
10:53 pm 22:53 Cloudy 23 -5 8 -13.3 53 53 NE 8 13 30.55 1034 10 16 0.00 0.00
11:53 pm 23:53 Cloudy 22 -5.6 12 -11.1 66 66 NNE 12 19 30.55 1034 10 16 0.00 0.00

Powered by AerisWeather